Location: Newark
(25.0000°N, 73.5000°E)
Time: 00:52:20
(UTC+00:00)

Explorer 7 - Visible Passes

Search period start: 31 July 2021 00:00
Search period end: 10 August 2021 00:00
Orbit: 484 x 676 km, 50.3° (Epoch: 30 July)

Date Brightness Start Highest point End Pass type
(mag) Time Alt. Az. Time Alt. Az. Time Alt. Az.
31 Jul 6.7 22:46:51 66° N 22:46:51 66° N 22:50:18 10° NE visible
01 Aug 7.6 22:51:10 34° NNW 22:51:10 34° NNW 22:54:22 10° NNE visible
02 Aug 8.5 22:55:25 19° NW 22:55:25 19° NW 22:58:05 10° N visible
03 Aug 9.1 22:59:36 11° NW 22:59:50 11° NW 23:01:02 10° NNW visible
